This is the latest recevied weather packets stored in our database for station/object YU7OR-2. If no packets are shown the sender has not sent any weather packets the latest 10 day(s).
| Time | Temp. | Humidity | Pressure | Rain* | Wind** | Luminosity | Snow |
|---|---|---|---|---|---|---|---|
| 1777980319 | 26.11° C | 43% | 1011.5 hPa | 0 mm | - | - | - |
| 1777980064 | 26.11° C | 43% | 1011.5 hPa | 0 mm | - | - | - |
| 1777979804 | 26.11° C | 43% | 1011.5 hPa | 0 mm | - | - | - |
| 1777979529 | 26.11° C | 43% | 1011.9 hPa | 0 mm | - | - | - |
| 1777979249 | 26.11° C | 43% | 1011.6 hPa | 0 mm | - | - | - |
| 1777978989 | 26.11° C | 43% | 1011.7 hPa | 0 mm | - | - | - |
| 1777978689 | 26.11° C | 43% | 1011.7 hPa | 0 mm | - | - | - |
| 1777978414 | 26.67° C | 43% | 1011.9 hPa | 0 mm | - | - | - |
| 1777978149 | 26.67° C | 43% | 1011.8 hPa | 0 mm | - | - | - |
| 1777977884 | 26.67° C | 43% | 1011.9 hPa | 0 mm | - | - | - |
| 1777977604 | 27.22° C | 43% | 1011.9 hPa | 0 mm | - | - | - |
| 1777977339 | 27.22° C | 43% | 1012.2 hPa | 0 mm | - | - | - |
| 1777977089 | 26.67° C | 44% | 1012.3 hPa | 0 mm | - | - | - |
| 1777976789 | 26.67° C | 44% | 1012.2 hPa | 0 mm | - | - | - |
| 1777976534 | 26.67° C | 44% | 1012.2 hPa | 0 mm | - | - | - |
| 1777976244 | 26.11° C | 43% | 1012.2 hPa | 0 mm | - | - | - |
| 1777975974 | 26.11° C | 43% | 1012.4 hPa | 0 mm | - | - | - |
| 1777975677 | 26.11° C | 43% | 1012.4 hPa | 0 mm | - | - | - |
| 1777975429 | 26.11° C | 43% | 1012.3 hPa | 0 mm | - | - | - |
| 1777975174 | 26.11° C | 43% | 1012.5 hPa | 0 mm | - | - | - |
| 1777974884 | 26.11° C | 43% | 1012.4 hPa | 0 mm | - | - | - |
| 1777974639 | 26.11° C | 43% | 1012.5 hPa | 0 mm | - | - | - |
| 1777974355 | 26.11° C | 43% | 1012.5 hPa | 0 mm | - | - | - |
| 1777974114 | 26.11° C | 43% | 1012.5 hPa | 0 mm | - | - | - |
| 1777973819 | 25.56° C | 43% | 1012.7 hPa | 0 mm | - | - | - |
* Rain latest hour (hover to see other rain measurements)
** Current wind speed in m/s (hover to see current wind gust speed)